TimePDT,TemperatureF,Dew PointF,Humidity,Sea Level PressureIn,VisibilityMPH,Wind Direction,Wind SpeedMPH,Gust SpeedMPH,PrecipitationIn,Events,Conditions,WindDirDegrees,DateUTC
12:53 AM,21.0,18.0,88,30.43,10.0,South,4.6,-,N/A,,Clear,170,2012-10-26 07:53:00
1:53 AM,21.9,18.0,85,30.42,10.0,South,5.8,-,N/A,,Clear,190,2012-10-26 08:53:00
2:53 AM,19.9,16.0,85,30.44,10.0,South,9.2,-,N/A,,Clear,170,2012-10-26 09:53:00
3:53 AM,18.0,15.1,88,30.46,10.0,South,6.9,-,N/A,,Clear,170,2012-10-26 10:53:00
4:53 AM,18.0,14.0,84,30.45,10.0,South,8.1,-,N/A,,Clear,170,2012-10-26 11:53:00
5:53 AM,16.0,12.9,88,30.49,10.0,South,10.4,-,N/A,,Clear,180,2012-10-26 12:53:00
6:53 AM,15.1,12.0,88,30.49,10.0,South,4.6,-,N/A,,Clear,190,2012-10-26 13:53:00
7:53 AM,17.6,14.0,86,30.43,10.0,South,5.8,-,N/A,,Clear,170,2012-10-26 14:53:00
8:53 AM,25.0,19.0,78,30.49,10.0,Calm,Calm,-,N/A,,Clear,0,2012-10-26 15:53:00
9:53 AM,30.0,19.0,64,30.43,10.0,Calm,Calm,-,N/A,,Clear,0,2012-10-26 16:53:00
10:53 AM,35.1,19.9,54,30.40,10.0,SSW,3.5,-,N/A,,Clear,210,2012-10-26 17:53:00
11:53 AM,39.0,21.0,49,30.38,10.0,ENE,4.6,-,N/A,,Clear,70,2012-10-26 18:53:00
12:53 PM,42.1,18.0,38,30.31,10.0,Calm,Calm,-,N/A,,Clear,0,2012-10-26 19:53:00
1:53 PM,48.9,19.0,31,30.24,10.0,ENE,4.6,-,N/A,,Clear,70,2012-10-26 20:53:00
2:53 PM,48.9,12.0,23,30.22,10.0,ENE,3.5,-,N/A,,Clear,70,2012-10-26 21:53:00
3:53 PM,50.0,8.1,18,30.22,10.0,Variable,3.5,-,N/A,,Clear,0,2012-10-26 22:53:00
4:53 PM,50.0,10.0,20,30.20,10.0,West,3.5,-,N/A,,Clear,270,2012-10-26 23:53:00
5:53 PM,43.0,15.1,32,30.25,10.0,SW,3.5,-,N/A,,Clear,230,2012-10-27 00:53:00
6:53 PM,39.9,12.9,33,30.28,10.0,East,3.5,-,N/A,,Clear,90,2012-10-27 01:53:00
7:53 PM,33.1,18.0,54,30.30,10.0,Calm,Calm,-,N/A,,Clear,0,2012-10-27 02:53:00
8:53 PM,33.1,15.1,48,30.27,10.0,South,4.6,-,N/A,,Clear,190,2012-10-27 03:53:00
9:53 PM,28.0,19.9,72,30.28,10.0,SSE,5.8,-,N/A,,Clear,160,2012-10-27 04:53:00
10:53 PM,27.0,19.0,72,30.25,10.0,SSW,6.9,-,N/A,,Clear,200,2012-10-27 05:53:00
11:53 PM,28.0,18.0,66,30.22,10.0,South,8.1,-,N/A,,Clear,180,2012-10-27 06:53:00